Weather History for KPUW - March, 2013

Change the Weather History Date:

Tuesday, March 26, 2013

  Actual Average Record
Temperature  
Mean Temperature 45 °F 42 °F  
Max Temperature 57 °F 51 °F 65 °F (1946)
Min Temperature 33 °F 34 °F 18 °F (1955)
Degree Days  
Heating Degree Days 20 23  
Month to date heating degree days 649 646  
Since 1 July heating degree days 5075 5349  
Cooling Degree Days 0 0  
Month to date cooling degree days 0 0  
Year to date cooling degree days 0 0  
Moisture  
Dew Point 30 °F    
Average Humidity 54    
Maximum Humidity 70    
Minimum Humidity 38    
Precipitation  
Precipitation 0.00 in 0.06 in 1.03 in (1981)
Month to date precipitation 0.89 1.72  
Year to date precipitation 3.23 5.06  
Sea Level Pressure  
Sea Level Pressure 29.99 in    
Wind  
Wind Speed 3 mph (North)    
Max Wind Speed 10 mph    
Max Gust Speed 18 mph    
Visibility 10 miles    
Events      
T = Trace of Precipitation, MM = Missing Value Source: NWS Daily Summary

Daily Weather History Graph

Daily Weather History Graph

Search for Another Location

Airport or City:

Trip Planner

Search our weather history database for the weather conditions in past years. The results will help you decide how hot, cold, wet, or windy it might be!

Date:

Astronomy

Mar. 26, 2013 Rise Set
Actual Time 6:38 AM PDT 7:09 PM PDT
Civil Twilight 6:08 AM PDT 7:40 PM PDT
Nautical Twilight 5:32 AM PDT 8:16 PM PDT
Astronomical Twilight 4:55 AM PDT 8:53 PM PDT
Moon 6:53 PM PDT (3/26) 5:58 AM PDT (3/26)
Length of Visible Light 13h 31m
Length of Day
12h 30m
Full, 100% of the Moon is Illuminated
Mar 26
Full
Mar 27
Full
Apr 2
Last Quarter
Apr 10
New
Apr 18
First Quarter

Hourly Weather History & Observations

Time (PDT) Temp. Windchill Dew Point Humidity Pressure Visibility Wind Dir Wind Speed Gust Speed Precip Events Conditions
12:53 AM 39.0 °F - 27.0 °F 62% 29.99 in 10.0 mi Calm Calm - N/A   Overcast
1:53 AM 41.0 °F 39.0 °F 27.0 °F 57% 29.99 in 10.0 mi NNE 3.5 mph - N/A   Overcast
2:53 AM 41.0 °F 35.8 °F 27.0 °F 57% 29.98 in 10.0 mi NE 8.1 mph - N/A   Overcast
3:53 AM 37.9 °F 32.7 °F 26.1 °F 62% 29.98 in 10.0 mi NE 6.9 mph - N/A   Mostly Cloudy
4:53 AM 37.0 °F 33.3 °F 26.1 °F 65% 29.98 in 10.0 mi NE 4.6 mph - N/A   Clear
5:53 AM 37.0 °F - 26.1 °F 65% 29.99 in 10.0 mi Calm Calm - N/A   Clear
6:53 AM 36.0 °F 33.3 °F 25.0 °F 64% 30.00 in 10.0 mi NE 3.5 mph - N/A   Clear
7:53 AM 37.9 °F - 28.0 °F 68% 30.01 in 10.0 mi Calm Calm - N/A   Clear
8:53 AM 45.0 °F 41.8 °F 28.9 °F 53% 30.00 in 10.0 mi ESE 5.8 mph - N/A   Mostly Cloudy
9:53 AM 46.9 °F - 28.9 °F 50% 30.01 in 10.0 mi Calm Calm - N/A   Scattered Clouds
10:53 AM 48.9 °F - 30.9 °F 50% 30.01 in 10.0 mi Calm Calm - N/A   Clear
11:53 AM 52.0 °F - 33.1 °F 49% 30.00 in 10.0 mi WSW 5.8 mph - N/A   Clear
12:53 PM 54.0 °F - 30.9 °F 41% 30.00 in 10.0 mi Calm Calm - N/A   Scattered Clouds
1:53 PM 52.0 °F - 32.0 °F 47% 29.99 in 10.0 mi Calm Calm - N/A   Clear
2:53 PM 55.0 °F - 32.0 °F 42% 29.98 in 10.0 mi Calm Calm - N/A   Scattered Clouds
3:53 PM 55.0 °F - 32.0 °F 42% 29.98 in 10.0 mi WNW 6.9 mph - N/A   Partly Cloudy
4:53 PM 55.0 °F - 30.0 °F 38% 29.98 in 10.0 mi WNW 6.9 mph - N/A   Clear
5:53 PM 52.0 °F - 33.1 °F 49% 29.98 in 10.0 mi West 6.9 mph - N/A   Partly Cloudy
6:53 PM 51.1 °F - 30.9 °F 46% 29.98 in 10.0 mi Calm Calm - N/A   Overcast
7:53 PM 48.9 °F - 33.1 °F 54% 29.98 in 10.0 mi WNW 3.5 mph - N/A   Overcast
8:53 PM 46.9 °F - 32.0 °F 56% 29.98 in 10.0 mi Calm Calm - N/A   Overcast
9:53 PM 43.0 °F - 32.0 °F 65% 29.99 in 10.0 mi Calm Calm - N/A   Clear
10:53 PM 41.0 °F - 32.0 °F 70% 29.98 in 10.0 mi Calm Calm - N/A   Clear
11:53 PM 41.0 °F - 32.0 °F 70% 29.97 in 10.0 mi Calm Calm - N/A   Clear